Regional Weather Roundup
Issued by NWS Charleston, SC

Home | Current Version | Previous Version | Text Only | Print | Product List | Glossary On
Versions: 1 2 3 4 5 6 7 8 9 10 11 12 13 14 15 16 17 18 19 20 21 22 23 24 25 26 27 28 29 30 31 32 33 34 35 36 37 38 39 40 41 42 43 44 45 46 47 48 49 50
000
ASUS42 KCHS 231325
RWRCHS

REGIONAL WEATHER ROUNDUP
NATIONAL WEATHER SERVICE CHARLESTON SC
900 AM EDT SAT AUG 23 2014

NOTE: "FAIR" INDICATES FEW OR NO CLOUDS BELOW 12,000 FEET WITH NO
SIGNIFICANT WEATHER AND/OR OBSTRUCTIONS TO VISIBILITY.

NOT ALL STATIONS ARE QUALITY CONTROLLED BY THE NATIONAL
WEATHER SERVICE. USE DATA WITH CAUTION...ESPECIALLY
DEWPOINT OBSERVATIONS.

SCZ027-030-031-034>040-042>050-231400-
...SOUTH CAROLINA...

CITY           SKY/WX    TMP DP  RH WIND       PRES   REMARKS
N CHARLESTON   MOSUNNY   85  73  67 NW8       29.93R HX  91
WATERFRONT PRK   N/A     86 N/A N/A NW6         N/A
FORT JOHNSON   NOT AVBL
MOUNT PLEASANT FAIR      86  75  70 NW7       29.92S HX  95
JOHNS ISLAND   SUNNY     88  77  70 NW8       29.93S HX 100
PINOPOLIS        N/A     86  75  70 W2        29.84R HX  95
MONCKS CORNER    N/A     84  79  84 CALM      29.93S HX  96
SUMMERVILLE    FAIR      82  77  83 CALM      29.94S HX  91
BEAUFORT MCAS  SUNNY     86  74  67 N5        29.94R HX  94
BEAUFORT ARPT  FAIR      86  75  70 W7        29.93S HX  95
HILTON HEAD IS SUNNY     84  73  70 W5        29.95R HX  91
GEORGETOWN     NOT AVBL
WALTERBORO     SUNNY     86  73  66 NW5       29.95S HX  93
ORANGEBURG     SUNNY     81  70  69 NW6       29.94R
BARNWELL       FAIR      82  73  74 NW6       29.96S
AIKEN          FAIR      82  73  74 N5        30.00S
MANNING        FAIR      82  79  89 CALM      29.93S HX  93
KINGSTREE      NOT AVBL
COLUMBIA       MOSUNNY   84  72  67 CALM      29.94S
SUMTER         MOSUNNY   82  74  76 NE5       29.93R
FLORENCE       SUNNY     81  73  76 NE7       29.94R
MYRTLE BEACH   MOSUNNY   82  77  83 N5        29.92R HX  91
N MYRTLE BEACH MOSUNNY   81  78  91 CALM      29.92R FOG

$$

GAZ063-065-086>088-099>101-113>116-118-119-134-136>141-150-231400-
...GEORGIA...

CITY           SKY/WX    TMP DP  RH WIND       PRES   REMARKS
SAVANNAH ARPT  MOSUNNY   84  72  67 NW6       29.95S
HUNTER AAF     SUNNY     84  74  71 W3        29.93S HX  91
FORT STEWART   SUNNY     85  72  65 NW3       29.95R HX  91
STATESBORO     NOT AVBL
SYLVANIA       SUNNY     85  75  72 NW5       29.97S HX  94
CLAXTON        FAIR      86  77  74 NW5       29.97R HX  97
THOMSON        SUNNY     83  77  83 NW5       30.03S HX  91
AUGUSTA-BUSH   SUNNY     83  71  67 NW6       29.96R
AUGUSTA-DANIEL SUNNY     84  71  65 NW8       29.98R
SWAINSBORO     FAIR      86  77  74 NW7       29.99S HX  97
VIDALIA          N/A     86  73  66 NW5       29.98F HX  93
ALMA           SUNNY     82  73  74 NW6       29.98R
WAYCROSS       SUNNY     87  77  72 NW3       29.98S HX  99
JESUP            N/A     88  77  70 CALM      29.97S HX 100
BRUNSWICK      SUNNY     86  72  62 NW5       29.97S HX  92
SAINT SIMONS   SUNNY     84  73  69 W7        29.96R HX  90

$$

SCZ027-028-034-036>038-045-046-048>050-GAZ119-141-231400-
...LAKE AND SUPPLEMENTAL COASTAL OBSERVATIONS...

STATION/POSITION TIME  TEMP    WIND        PRES    WAVE   SWELL
                       AIR SEA DIR/SP/G            HT/PER HT/PER/DIR
                 (UTC) (F)     (DEG/KT/KT) (MB)    (FT/S) (FT/S/D)
UPR LAKE MARION  NOT AVBL
WINYAH BAY       1300   82     280/  3     1013.0S
LAKE MURRAY      1300   83     360/  2/  4 1013.9S
ACE BASIN NERRS  1300   83     290/  2     1013.0S
FORT PULASKI     1300   83     290/  9/ 10 1014.2R
SAPELO ISLAND    1300   85     300/  4     1015.0S

$$

ANZ835-935-AMZ111-154-330-350-352-354-374-450-454-472-231400-
...C-MAN AND BUOY OBSERVATIONS...

STATION/POSITION TIME  TEMP    WIND        PRES    WAVE   SWELL
                       AIR SEA DIR/SP/G            HT/PER HT/PER/DIR
                 (UTC) (F)     (DEG/KT/KT) (MB)    (FT/S) (FT/S/D)
FOLLY BEACH CMAN 1300   85     290/  5/  9 1013.7R
BUOY 41004       1300   85 84  230/ 12/ 12 1012.4R   2/ 4   2/ 7
BUOY 41008       1200   84 85  270/ 12/ 14 1013.6R   2/ 3
5E ST. MARYS GA  1300      83                N/A     1/ 2
FRYING PAN BUOY  NOT AVBL
BUOY 41025       1300   79     350/  6/  8 1013.8R   2/ 8   2/ 30/ 8
CAPE LOOKOUT NC  1300   78      30/ 10/ 11 1013.9R
BUOY 41002       NOT AVBL
BUOY 41010       1300   84 86  240/  6/  8 1015.2R   2/ 8   2/130/ 8
BUOY 41012       NOT AVBL
ST AUGUSTINE FL  1300   83     270/  5/  7 1015.4F
CAPERS NEARSHORE 1200   85     280/  8/ 10   N/A
FRIPP NEARSHORE  NOT AVBL


$$


USA.gov is the U.S. government's official web portal to all federal, state and local government web resources and services.